Preview of NWS' New Version of Forecast
This preview is not operational and should not be used for support decisions.

Terminal Aerodrome Forecast (TAF)

Issued by National Weather Service (NWS)

                            
000
FTUS41 KGYX 231120
TAFRKD
TAF
KRKD 231120Z 2312/2412 30006KT P6SM FEW250=